Time,TemperatureF,DewpointF,PressureIn,WindDirection,WindDirectionDegrees,WindSpeedMPH,WindSpeedGustMPH,Humidity,HourlyPrecipIn,Conditions,Clouds,dailyrainin,SoftwareType,DateUTC
2013-01-04 00:00:00,28.3,20.1,29.99,WSW,257,1.0,9.0,71,0.00,,CLR,0.00,VWS V14.01,2013-01-04 05:00:00,
2013-01-04 00:03:00,28.3,20.1,29.99,WSW,244,3.0,5.0,71,0.00,,CLR,0.00,VWS V14.01,2013-01-04 05:03:00,
2013-01-04 00:14:00,28.4,20.2,29.99,WSW,244,3.0,6.0,71,0.00,,CLR,0.00,VWS V14.01,2013-01-04 05:14:00,
2013-01-04 00:19:00,28.5,20.3,29.98,SW,217,0.0,9.0,71,0.00,,CLR,0.00,VWS V14.01,2013-01-04 05:19:00,
2013-01-04 00:24:00,28.5,20.0,29.98,WSW,257,5.0,9.0,70,0.00,,CLR,0.00,VWS V14.01,2013-01-04 05:24:00,
2013-01-04 00:29:00,28.6,20.1,29.98,WSW,256,3.0,9.0,70,0.00,,CLR,0.00,VWS V14.01,2013-01-04 05:29:00,
2013-01-04 00:31:00,28.6,20.1,29.98,WSW,253,2.0,9.0,70,0.00,,CLR,0.00,VWS V14.01,2013-01-04 05:31:00,
2013-01-04 00:39:00,28.7,20.2,29.98,WNW,292,4.0,6.0,70,0.00,,CLR,0.00,VWS V14.01,2013-01-04 05:39:00,
2013-01-04 00:44:00,28.7,20.2,29.98,WSW,240,2.0,6.0,70,0.00,,CLR,0.00,VWS V14.01,2013-01-04 05:44:00,
2013-01-04 00:49:00,28.7,20.2,29.98,SW,230,2.0,9.0,70,0.00,,CLR,0.00,VWS V14.01,2013-01-04 05:49:00,
2013-01-04 00:54:00,28.7,19.8,29.98,SSW,213,0.0,9.0,69,0.00,,CLR,0.00,VWS V14.01,2013-01-04 05:54:00,
2013-01-04 00:59:00,28.7,19.8,29.97,SW,214,5.0,9.0,69,0.00,,CLR,0.00,VWS V14.01,2013-01-04 05:59:00,
2013-01-04 01:04:00,28.7,19.8,29.97,WSW,247,1.0,9.0,69,0.00,,CLR,0.00,VWS V14.01,2013-01-04 06:04:00,
2013-01-04 01:09:00,28.7,19.8,29.97,WSW,246,3.0,9.0,69,0.00,,CLR,0.00,VWS V14.01,2013-01-04 06:09:00,
2013-01-04 01:14:00,28.6,19.7,29.97,West,269,2.0,9.0,69,0.00,,CLR,0.00,VWS V14.01,2013-01-04 06:14:00,
2013-01-04 01:19:00,28.7,19.8,29.97,SW,229,1.0,9.0,69,0.00,,CLR,0.00,VWS V14.01,2013-01-04 06:19:00,
2013-01-04 01:24:00,28.6,19.7,29.97,WSW,250,0.0,9.0,69,0.00,,CLR,0.00,VWS V14.01,2013-01-04 06:24:00,
2013-01-04 01:29:00,28.5,19.6,29.97,West,266,2.0,9.0,69,0.00,,CLR,0.00,VWS V14.01,2013-01-04 06:29:00,
2013-01-04 01:34:00,28.5,19.6,29.97,WSW,258,2.0,3.0,69,0.00,,CLR,0.00,VWS V14.01,2013-01-04 06:34:00,
2013-01-04 01:39:00,28.4,19.9,29.97,WSW,244,2.0,9.0,70,0.00,,CLR,0.00,VWS V14.01,2013-01-04 06:39:00,
2013-01-04 01:44:00,28.3,19.8,29.97,West,270,3.0,9.0,70,0.00,,CLR,0.00,VWS V14.01,2013-01-04 06:44:00,
2013-01-04 01:49:00,28.3,19.8,29.97,West,271,1.0,10.0,70,0.00,,CLR,0.00,VWS V14.01,2013-01-04 06:49:00,
2013-01-04 01:54:00,28.4,19.9,29.97,West,265,4.0,11.0,70,0.00,,CLR,0.00,VWS V14.01,2013-01-04 06:54:00,
2013-01-04 01:59:00,28.4,19.9,29.97,WSW,251,10.0,11.0,70,0.00,,CLR,0.00,VWS V14.01,2013-01-04 06:59:00,
2013-01-04 02:04:00,28.5,20.0,29.97,WNW,302,3.0,8.0,70,0.00,,CLR,0.00,VWS V14.01,2013-01-04 07:04:00,
2013-01-04 02:09:00,28.5,20.0,29.98,West,260,2.0,8.0,70,0.00,,CLR,0.00,VWS V14.01,2013-01-04 07:09:00,
2013-01-04 02:14:00,28.4,19.9,29.98,West,268,1.0,8.0,70,0.00,,CLR,0.00,VWS V14.01,2013-01-04 07:14:00,
2013-01-04 02:19:00,28.4,19.9,29.98,West,281,1.0,8.0,70,0.00,,CLR,0.00,VWS V14.01,2013-01-04 07:19:00,
2013-01-04 02:24:00,28.3,19.8,29.98,SSW,211,1.0,8.0,70,0.00,,CLR,0.00,VWS V14.01,2013-01-04 07:24:00,
2013-01-04 02:29:00,28.2,19.7,29.98,WSW,238,4.0,9.0,70,0.00,,CLR,0.00,VWS V14.01,2013-01-04 07:29:00,
2013-01-04 02:34:00,28.2,19.7,29.98,WSW,239,4.0,6.0,70,0.00,,CLR,0.00,VWS V14.01,2013-01-04 07:34:00,
2013-01-04 02:39:00,28.2,20.0,29.98,WNW,288,1.0,6.0,71,0.00,,CLR,0.00,VWS V14.01,2013-01-04 07:39:00,
2013-01-04 02:44:00,28.2,20.0,29.98,SW,231,2.0,6.0,71,0.00,,CLR,0.00,VWS V14.01,2013-01-04 07:44:00,
2013-01-04 02:49:00,28.2,20.0,29.97,WSW,241,3.0,6.0,71,0.00,,CLR,0.00,VWS V14.01,2013-01-04 07:49:00,
2013-01-04 02:54:00,28.2,20.0,29.97,SSW,206,0.0,6.0,71,0.00,,CLR,0.00,VWS V14.01,2013-01-04 07:54:00,
2013-01-04 02:59:00,28.1,19.9,29.97,SW,221,0.0,6.0,71,0.00,,CLR,0.00,VWS V14.01,2013-01-04 07:59:00,
2013-01-04 03:04:00,28.1,19.9,29.97,West,260,2.0,5.0,71,0.00,,CLR,0.00,VWS V14.01,2013-01-04 08:04:00,
2013-01-04 03:09:00,28.0,19.8,29.97,WSW,246,0.0,5.0,71,0.00,,CLR,0.00,VWS V14.01,2013-01-04 08:09:00,
2013-01-04 03:14:00,28.0,19.8,29.97,WSW,238,1.0,5.0,71,0.00,,CLR,0.00,VWS V14.01,2013-01-04 08:14:00,
2013-01-04 03:19:00,27.9,19.7,29.97,SSW,212,0.0,5.0,71,0.00,,CLR,0.00,VWS V14.01,2013-01-04 08:19:00,
2013-01-04 03:24:00,27.9,19.7,29.96,West,280,1.0,6.0,71,0.00,,CLR,0.00,VWS V14.01,2013-01-04 08:24:00,
2013-01-04 03:29:00,27.8,19.6,29.96,West,259,3.0,6.0,71,0.00,,CLR,0.00,VWS V14.01,2013-01-04 08:29:00,
2013-01-04 03:34:00,27.7,19.5,29.96,SSW,207,1.0,4.0,71,0.00,,CLR,0.00,VWS V14.01,2013-01-04 08:34:00,
2013-01-04 03:39:00,27.5,19.7,29.96,West,259,5.0,5.0,72,0.00,,CLR,0.00,VWS V14.01,2013-01-04 08:39:00,
2013-01-04 03:44:00,27.4,19.6,29.96,West,260,2.0,7.0,72,0.00,,CLR,0.00,VWS V14.01,2013-01-04 08:44:00,
2013-01-04 03:49:00,27.2,19.4,29.96,West,262,0.0,7.0,72,0.00,,CLR,0.00,VWS V14.01,2013-01-04 08:49:00,
2013-01-04 03:54:00,27.0,19.2,29.96,WSW,237,3.0,7.0,72,0.00,,CLR,0.00,VWS V14.01,2013-01-04 08:54:00,
2013-01-04 03:59:00,26.9,19.4,29.96,SW,225,0.0,7.0,73,0.00,,CLR,0.00,VWS V14.01,2013-01-04 08:59:00,
2013-01-04 04:04:00,26.7,19.2,29.96,SSW,207,2.0,5.0,73,0.00,,CLR,0.00,VWS V14.01,2013-01-04 09:04:00,
2013-01-04 04:09:00,26.7,19.5,29.95,WSW,252,0.0,5.0,74,0.00,,CLR,0.00,VWS V14.01,2013-01-04 09:09:00,
2013-01-04 04:14:00,26.7,19.5,29.96,SW,223,4.0,7.0,74,0.00,,CLR,0.00,VWS V14.01,2013-01-04 09:14:00,
2013-01-04 04:19:00,26.7,19.9,29.96,West,265,1.0,7.0,75,0.00,,CLR,0.00,VWS V14.01,2013-01-04 09:19:00,
2013-01-04 04:24:00,26.7,19.9,29.96,West,260,1.0,7.0,75,0.00,,CLR,0.00,VWS V14.01,2013-01-04 09:24:00,
2013-01-04 04:29:00,26.8,20.0,29.96,NW,320,0.0,7.0,75,0.00,,CLR,0.00,VWS V14.01,2013-01-04 09:29:00,
2013-01-04 04:34:00,26.7,19.9,29.96,NW,320,0.0,2.0,75,0.00,,CLR,0.00,VWS V14.01,2013-01-04 09:34:00,
2013-01-04 04:39:00,26.7,20.2,29.96,WNW,299,3.0,5.0,76,0.00,,CLR,0.00,VWS V14.01,2013-01-04 09:39:00,
2013-01-04 04:44:00,26.7,20.2,29.96,WNW,286,1.0,5.0,76,0.00,,CLR,0.00,VWS V14.01,2013-01-04 09:44:00,
2013-01-04 04:49:00,26.7,20.2,29.96,WNW,286,0.0,5.0,76,0.00,,CLR,0.00,VWS V14.01,2013-01-04 09:49:00,
2013-01-04 04:54:00,26.6,20.1,29.96,WNW,287,2.0,5.0,76,0.00,,CLR,0.00,VWS V14.01,2013-01-04 09:54:00,
2013-01-04 04:59:00,26.6,20.1,29.96,WNW,287,1.0,5.0,76,0.00,,CLR,0.00,VWS V14.01,2013-01-04 09:59:00,
2013-01-04 05:04:00,26.5,20.0,29.96,WSW,244,1.0,3.0,76,0.00,,CLR,0.00,VWS V14.01,2013-01-04 10:04:00,
2013-01-04 05:09:00,26.5,20.3,29.96,WSW,257,3.0,3.0,77,0.00,,CLR,0.00,VWS V14.01,2013-01-04 10:09:00,
2013-01-04 05:14:00,26.5,20.3,29.96,West,268,1.0,4.0,77,0.00,,CLR,0.00,VWS V14.01,2013-01-04 10:14:00,
2013-01-04 05:19:00,26.4,20.2,29.96,SW,235,2.0,4.0,77,0.00,,CLR,0.00,VWS V14.01,2013-01-04 10:19:00,
2013-01-04 05:24:00,26.4,20.5,29.96,West,259,3.0,4.0,78,0.00,,CLR,0.00,VWS V14.01,2013-01-04 10:24:00,
2013-01-04 05:29:00,26.4,20.5,29.96,SSW,208,1.0,5.0,78,0.00,,CLR,0.00,VWS V14.01,2013-01-04 10:29:00,
2013-01-04 05:34:00,26.4,20.5,29.97,WNW,298,0.0,2.0,78,0.00,,CLR,0.00,VWS V14.01,2013-01-04 10:34:00,
2013-01-04 05:39:00,26.3,20.4,29.96,West,268,1.0,4.0,78,0.00,,CLR,0.00,VWS V14.01,2013-01-04 10:39:00,
2013-01-04 05:44:00,26.3,20.4,29.96,NNW,333,2.0,4.0,78,0.00,,CLR,0.00,VWS V14.01,2013-01-04 10:44:00,
2013-01-04 05:49:00,26.3,20.4,29.96,NNW,338,0.0,4.0,78,0.00,,CLR,0.00,VWS V14.01,2013-01-04 10:49:00,
2013-01-04 05:54:00,26.3,20.4,29.96,North,355,0.0,4.0,78,0.00,,CLR,0.00,VWS V14.01,2013-01-04 10:54:00,
2013-01-04 05:59:00,26.2,20.6,29.97,NW,304,1.0,4.0,79,0.00,,CLR,0.00,VWS V14.01,2013-01-04 10:59:00,
2013-01-04 06:04:00,26.3,20.7,29.97,West,262,0.0,3.0,79,0.00,,CLR,0.00,VWS V14.01,2013-01-04 11:04:00,
2013-01-04 06:09:00,26.4,20.8,29.97,NW,318,1.0,3.0,79,0.00,,CLR,0.00,VWS V14.01,2013-01-04 11:09:00,
2013-01-04 06:14:00,26.5,20.9,29.97,WNW,292,2.0,4.0,79,0.00,,CLR,0.00,VWS V14.01,2013-01-04 11:14:00,
2013-01-04 06:19:00,26.5,20.9,29.97,WNW,292,1.0,4.0,79,0.00,,CLR,0.00,VWS V14.01,2013-01-04 11:19:00,
2013-01-04 06:24:00,26.5,20.9,29.97,SSW,200,1.0,4.0,79,0.00,,CLR,0.00,VWS V14.01,2013-01-04 11:24:00,
2013-01-04 06:29:00,26.6,21.0,29.98,SSW,201,0.0,4.0,79,0.00,,CLR,0.00,VWS V14.01,2013-01-04 11:29:00,
2013-01-04 06:34:00,26.5,20.9,29.97,SSW,201,0.0,2.0,79,0.00,,CLR,0.00,VWS V14.01,2013-01-04 11:34:00,
2013-01-04 06:39:00,26.5,20.6,29.97,West,264,1.0,3.0,78,0.00,,CLR,0.00,VWS V14.01,2013-01-04 11:39:00,
2013-01-04 06:44:00,26.4,20.5,29.97,West,264,0.0,3.0,78,0.00,,CLR,0.00,VWS V14.01,2013-01-04 11:44:00,
2013-01-04 06:49:00,26.3,20.4,29.97,WSW,253,0.0,4.0,78,0.00,,CLR,0.00,VWS V14.01,2013-01-04 11:49:00,
2013-01-04 06:54:00,26.2,20.6,29.97,WSW,253,0.0,4.0,79,0.00,,CLR,0.00,VWS V14.01,2013-01-04 11:54:00,
2013-01-04 06:59:00,26.1,20.5,29.97,WSW,253,3.0,4.0,79,0.00,,CLR,0.00,VWS V14.01,2013-01-04 11:59:00,
2013-01-04 07:04:00,26.0,20.4,29.97,WSW,243,4.0,4.0,79,0.00,,CLR,0.00,VWS V14.01,2013-01-04 12:04:00,
2013-01-04 07:09:00,25.8,20.5,29.97,WSW,253,1.0,6.0,80,0.00,,CLR,0.00,VWS V14.01,2013-01-04 12:09:00,
2013-01-04 07:14:00,25.8,20.5,29.97,WSW,255,0.0,6.0,80,0.00,,CLR,0.00,VWS V14.01,2013-01-04 12:14:00,
2013-01-04 07:19:00,25.7,20.4,29.98,SW,221,1.0,6.0,80,0.00,,CLR,0.00,VWS V14.01,2013-01-04 12:19:00,
2013-01-04 07:25:00,25.7,20.7,29.98,West,263,1.0,6.0,81,0.00,,CLR,0.00,VWS V14.01,2013-01-04 12:25:00,
2013-01-04 07:30:00,25.7,20.7,29.98,West,268,3.0,6.0,81,0.00,,CLR,0.00,VWS V14.01,2013-01-04 12:30:00,
2013-01-04 07:35:00,25.7,20.7,29.98,West,267,0.0,3.0,81,0.00,,CLR,0.00,VWS V14.01,2013-01-04 12:35:00,
2013-01-04 07:40:00,25.8,21.1,29.98,SW,222,3.0,6.0,82,0.00,,CLR,0.00,VWS V14.01,2013-01-04 12:40:00,
2013-01-04 07:45:00,25.9,21.2,29.98,SW,222,4.0,9.0,82,0.00,,CLR,0.00,VWS V14.01,2013-01-04 12:45:00,
2013-01-04 07:50:00,26.3,21.9,29.98,West,261,6.0,9.0,83,0.00,,CLR,0.00,VWS V14.01,2013-01-04 12:50:00,
2013-01-04 07:55:00,26.7,22.0,29.98,West,259,3.0,11.0,82,0.00,,CLR,0.00,VWS V14.01,2013-01-04 12:55:00,
2013-01-04 08:00:00,27.2,22.4,29.98,WSW,245,2.0,11.0,82,0.00,,CLR,0.00,VWS V14.01,2013-01-04 13:00:00,
2013-01-04 08:05:00,27.5,22.7,29.98,West,270,2.0,9.0,82,0.00,,CLR,0.00,VWS V14.01,2013-01-04 13:05:00,
2013-01-04 08:10:00,28.0,22.9,29.99,West,263,3.0,9.0,81,0.00,,CLR,0.00,VWS V14.01,2013-01-04 13:10:00,
2013-01-04 08:15:00,28.3,23.2,29.99,SW,232,6.0,9.0,81,0.00,,CLR,0.00,VWS V14.01,2013-01-04 13:15:00,
2013-01-04 08:20:00,28.7,23.3,29.98,SW,219,3.0,11.0,80,0.00,,CLR,0.00,VWS V14.01,2013-01-04 13:20:00,
2013-01-04 08:25:00,29.2,23.5,29.98,West,260,3.0,11.0,79,0.00,,CLR,0.00,VWS V14.01,2013-01-04 13:25:00,
2013-01-04 08:30:00,29.6,23.6,29.99,WSW,250,3.0,11.0,78,0.00,,CLR,0.00,VWS V14.01,2013-01-04 13:30:00,
2013-01-04 08:35:00,29.8,23.8,29.99,West,270,6.0,12.0,78,0.00,,CLR,0.00,VWS V14.01,2013-01-04 13:35:00,
2013-01-04 08:40:00,30.2,23.9,29.99,SW,236,10.0,12.0,77,0.00,,CLR,0.00,VWS V14.01,2013-01-04 13:40:00,
2013-01-04 08:45:00,30.6,24.0,29.99,NW,307,4.0,12.0,76,0.00,,CLR,0.00,VWS V14.01,2013-01-04 13:45:00,
2013-01-04 08:50:00,31.1,24.4,29.99,WSW,238,0.0,14.0,76,0.00,,CLR,0.00,VWS V14.01,2013-01-04 13:50:00,
2013-01-04 08:55:00,31.4,24.4,29.99,WSW,239,6.0,14.0,75,0.00,,CLR,0.00,VWS V14.01,2013-01-04 13:55:00,
2013-01-04 09:00:00,31.8,24.8,29.99,West,275,4.0,14.0,75,0.00,,CLR,0.00,VWS V14.01,2013-01-04 14:00:00,
2013-01-04 09:05:00,32.1,24.8,29.99,WSW,239,16.0,16.0,74,0.00,,CLR,0.00,VWS V14.01,2013-01-04 14:05:00,
2013-01-04 09:10:00,32.5,25.1,29.99,SW,235,2.0,16.0,74,0.00,,CLR,0.00,VWS V14.01,2013-01-04 14:10:00,
2013-01-04 09:15:00,32.8,25.1,29.99,West,267,4.0,16.0,73,0.00,,CLR,0.00,VWS V14.01,2013-01-04 14:15:00,
2013-01-04 09:20:00,33.2,25.5,29.99,SW,223,9.0,16.0,73,0.00,,CLR,0.00,VWS V14.01,2013-01-04 14:20:00,
2013-01-04 09:25:00,33.7,25.6,30.00,WSW,255,2.0,16.0,72,0.00,,CLR,0.00,VWS V14.01,2013-01-04 14:25:00,
2013-01-04 09:30:00,34.0,25.9,29.99,WNW,292,3.0,16.0,72,0.00,,CLR,0.00,VWS V14.01,2013-01-04 14:30:00,
2013-01-04 09:35:00,34.4,26.0,29.99,NW,317,2.0,13.0,71,0.00,,CLR,0.00,VWS V14.01,2013-01-04 14:35:00,
2013-01-04 09:40:00,34.8,26.4,29.99,WNW,286,5.0,13.0,71,0.00,,CLR,0.00,VWS V14.01,2013-01-04 14:40:00,
2013-01-04 09:45:00,35.2,26.4,29.99,West,277,7.0,13.0,70,0.00,,CLR,0.00,VWS V14.01,2013-01-04 14:45:00,
2013-01-04 09:50:00,35.7,26.5,29.99,SW,229,7.0,13.0,69,0.00,,CLR,0.00,VWS V14.01,2013-01-04 14:50:00,
2013-01-04 09:55:00,36.2,26.7,29.99,West,277,3.0,15.0,68,0.00,,CLR,0.00,VWS V14.01,2013-01-04 14:55:00,
2013-01-04 10:00:00,36.6,27.0,29.99,WSW,244,3.0,15.0,68,0.00,,CLR,0.00,VWS V14.01,2013-01-04 15:00:00,
2013-01-04 10:05:00,37.3,27.4,29.98,SSW,209,4.0,11.0,67,0.00,,CLR,0.00,VWS V14.01,2013-01-04 15:05:00,
2013-01-04 10:10:00,37.8,27.5,29.98,WSW,238,3.0,18.0,66,0.00,,CLR,0.00,VWS V14.01,2013-01-04 15:10:00,
2013-01-04 10:15:00,38.4,27.7,29.98,West,259,3.0,18.0,65,0.00,,CLR,0.00,VWS V14.01,2013-01-04 15:15:00,
2013-01-04 10:20:00,38.9,28.1,29.98,SSE,161,1.0,18.0,65,0.00,,CLR,0.00,VWS V14.01,2013-01-04 15:20:00,
2013-01-04 10:25:00,39.4,28.2,29.98,SW,233,6.0,18.0,64,0.00,,CLR,0.00,VWS V14.01,2013-01-04 15:25:00,
2013-01-04 10:30:00,39.8,28.2,29.97,SW,232,4.0,18.0,63,0.00,,CLR,0.00,VWS V14.01,2013-01-04 15:30:00,
2013-01-04 10:35:00,39.8,27.9,29.97,West,272,3.0,16.0,62,0.00,,CLR,0.00,VWS V14.01,2013-01-04 15:35:00,
2013-01-04 10:40:00,39.8,27.9,29.96,West,275,6.0,16.0,62,0.00,,CLR,0.00,VWS V14.01,2013-01-04 15:40:00,
2013-01-04 10:45:00,40.0,28.0,29.96,WSW,241,15.0,16.0,62,0.00,,CLR,0.00,VWS V14.01,2013-01-04 15:45:00,
2013-01-04 10:50:00,39.9,28.0,29.96,WSW,247,15.0,16.0,62,0.00,,CLR,0.00,VWS V14.01,2013-01-04 15:50:00,
2013-01-04 10:55:00,39.8,27.9,29.96,WSW,243,13.0,20.0,62,0.00,,CLR,0.00,VWS V14.01,2013-01-04 15:55:00,
2013-01-04 11:00:00,39.9,28.0,29.96,WSW,245,5.0,20.0,62,0.00,,CLR,0.00,VWS V14.01,2013-01-04 16:00:00,
2013-01-04 11:05:00,39.8,27.5,29.95,SW,221,10.0,15.0,61,0.00,,CLR,0.00,VWS V14.01,2013-01-04 16:05:00,
2013-01-04 11:10:00,39.4,27.1,29.95,West,280,9.0,19.0,61,0.00,,CLR,0.00,VWS V14.01,2013-01-04 16:10:00,
2013-01-04 11:15:00,38.9,27.0,29.95,West,273,7.0,19.0,62,0.00,,CLR,0.00,VWS V14.01,2013-01-04 16:15:00,
2013-01-04 11:20:00,38.7,27.2,29.95,SSW,193,6.0,19.0,63,0.00,,CLR,0.00,VWS V14.01,2013-01-04 16:20:00,
2013-01-04 11:25:00,38.5,27.4,29.94,SW,232,2.0,19.0,64,0.00,,CLR,0.00,VWS V14.01,2013-01-04 16:25:00,
2013-01-04 11:30:00,38.4,26.9,29.94,SSE,157,10.0,19.0,63,0.00,,CLR,0.00,VWS V14.01,2013-01-04 16:30:00,
2013-01-04 11:35:00,38.4,27.3,29.94,WSW,249,2.0,15.0,64,0.00,,CLR,0.00,VWS V14.01,2013-01-04 16:35:00,
2013-01-04 11:40:00,38.5,27.4,29.93,West,266,12.0,15.0,64,0.00,,CLR,0.00,VWS V14.01,2013-01-04 16:40:00,
2013-01-04 11:45:00,38.5,27.0,29.93,WSW,246,8.0,15.0,63,0.00,,CLR,0.00,VWS V14.01,2013-01-04 16:45:00,
2013-01-04 11:50:00,38.6,26.7,29.93,SSE,167,2.0,22.0,62,0.00,,CLR,0.00,VWS V14.01,2013-01-04 16:50:00,
2013-01-04 11:55:00,38.8,26.9,29.92,WSW,240,12.0,22.0,62,0.00,,CLR,0.00,VWS V14.01,2013-01-04 16:55:00,
2013-01-04 12:00:00,38.8,26.9,29.92,WSW,256,4.0,22.0,62,0.00,,CLR,0.00,VWS V14.01,2013-01-04 17:00:00,
2013-01-04 12:05:00,38.8,26.5,29.92,WSW,254,6.0,12.0,61,0.00,,BKN040,0.00,VWS V14.01,2013-01-04 17:05:00,
2013-01-04 12:10:00,38.8,26.9,29.92,SSW,210,2.0,12.0,62,0.00,,BKN040,0.00,VWS V14.01,2013-01-04 17:10:00,
2013-01-04 12:15:00,38.9,27.0,29.91,SSW,211,4.0,13.0,62,0.00,,BKN040,0.00,VWS V14.01,2013-01-04 17:15:00,
2013-01-04 12:20:00,38.6,26.7,29.91,NW,310,4.0,16.0,62,0.00,,BKN040,0.00,VWS V14.01,2013-01-04 17:20:00,
2013-01-04 12:25:00,38.4,26.5,29.91,SSW,213,4.0,17.0,62,0.00,,BKN040,0.00,VWS V14.01,2013-01-04 17:25:00,
2013-01-04 12:30:00,38.9,27.0,29.90,WNW,298,2.0,17.0,62,0.00,,BKN040,0.00,VWS V14.01,2013-01-04 17:30:00,
2013-01-04 12:35:00,39.6,27.3,29.90,NW,325,3.0,13.0,61,0.00,,BKN040,0.00,VWS V14.01,2013-01-04 17:35:00,
2013-01-04 12:40:00,39.7,26.6,29.89,West,279,7.0,22.0,59,0.00,,BKN040,0.00,VWS V14.01,2013-01-04 17:40:00,
2013-01-04 12:45:00,39.3,26.6,29.89,SW,231,15.0,22.0,60,0.00,,BKN040,0.00,VWS V14.01,2013-01-04 17:45:00,
2013-01-04 12:50:00,39.2,26.1,29.89,SW,218,5.0,22.0,59,0.00,,BKN040,0.00,VWS V14.01,2013-01-04 17:50:00,
2013-01-04 12:55:00,38.9,26.6,29.89,West,266,2.0,22.0,61,0.00,,BKN040,0.00,VWS V14.01,2013-01-04 17:55:00,
2013-01-04 13:00:00,39.2,27.3,29.89,WSW,243,4.0,22.0,62,0.00,,SCT038,0.00,VWS V14.01,2013-01-04 18:00:00,
2013-01-04 13:05:00,39.7,27.4,29.89,West,265,9.0,20.0,61,0.00,,SCT038,0.00,VWS V14.01,2013-01-04 18:05:00,
2013-01-04 13:10:00,39.6,27.3,29.89,SSE,167,3.0,20.0,61,0.00,,SCT038,0.00,VWS V14.01,2013-01-04 18:10:00,
2013-01-04 13:15:00,39.4,27.5,29.88,WSW,244,5.0,20.0,62,0.00,,SCT038,0.00,VWS V14.01,2013-01-04 18:15:00,
2013-01-04 13:20:00,39.0,27.5,29.88,SW,221,12.0,20.0,63,0.00,,SCT038,0.00,VWS V14.01,2013-01-04 18:20:00,
2013-01-04 13:25:00,38.6,27.5,29.88,WSW,241,14.0,20.0,64,0.00,,SCT038,0.00,VWS V14.01,2013-01-04 18:25:00,
2013-01-04 13:30:00,38.3,27.6,29.88,WNW,294,7.0,20.0,65,0.00,,SCT038,0.00,VWS V14.01,2013-01-04 18:30:00,
2013-01-04 13:35:00,38.2,27.1,29.87,SW,233,4.0,20.0,64,0.00,,SCT038,0.00,VWS V14.01,2013-01-04 18:35:00,
2013-01-04 13:40:00,38.4,27.3,29.87,WSW,256,7.0,20.0,64,0.00,,SCT038,0.00,VWS V14.01,2013-01-04 18:40:00,
2013-01-04 13:45:00,38.6,27.5,29.87,NW,309,5.0,20.0,64,0.00,,SCT038,0.00,VWS V14.01,2013-01-04 18:45:00,
2013-01-04 13:50:00,38.8,27.7,29.87,SSE,163,2.0,20.0,64,0.00,,SCT038,0.00,VWS V14.01,2013-01-04 18:50:00,
2013-01-04 13:55:00,39.0,27.5,29.87,South,180,3.0,20.0,63,0.00,,SCT038,0.00,VWS V14.01,2013-01-04 18:55:00,
2013-01-04 14:00:00,38.9,27.4,29.87,West,264,11.0,20.0,63,0.00,,BKN032,0.00,VWS V14.01,2013-01-04 19:00:00,
2013-01-04 14:05:00,39.0,27.5,29.86,South,169,3.0,19.0,63,0.00,,BKN032,0.00,VWS V14.01,2013-01-04 19:05:00,
2013-01-04 14:10:00,39.0,27.5,29.86,NW,305,3.0,19.0,63,0.00,,BKN032,0.00,VWS V14.01,2013-01-04 19:10:00,
2013-01-04 14:15:00,39.0,27.5,29.86,SW,218,3.0,21.0,63,0.00,,BKN032,0.00,VWS V14.01,2013-01-04 19:15:00,
2013-01-04 14:21:00,38.9,27.4,29.86,SW,221,6.0,21.0,63,0.00,,BKN032,0.00,VWS V14.01,2013-01-04 19:21:00,
2013-01-04 14:26:00,38.8,27.7,29.86,SSW,203,10.0,21.0,64,0.00,,BKN032,0.00,VWS V14.01,2013-01-04 19:26:00,
2013-01-04 14:31:00,38.7,27.6,29.86,WSW,242,10.0,21.0,64,0.00,,BKN032,0.00,VWS V14.01,2013-01-04 19:31:00,
2013-01-04 14:36:00,38.8,27.7,29.87,WNW,289,10.0,18.0,64,0.00,,BKN032,0.00,VWS V14.01,2013-01-04 19:36:00,
2013-01-04 14:41:00,38.6,27.5,29.86,SSW,213,10.0,18.0,64,0.00,,BKN032,0.00,VWS V14.01,2013-01-04 19:41:00,
2013-01-04 14:46:00,38.4,27.3,29.87,WSW,257,4.0,25.0,64,0.00,,BKN032,0.00,VWS V14.01,2013-01-04 19:46:00,
2013-01-04 14:51:00,38.4,27.7,29.87,WNW,292,10.0,25.0,65,0.00,,BKN032,0.00,VWS V14.01,2013-01-04 19:51:00,
2013-01-04 14:56:00,38.3,27.6,29.86,SSW,196,10.0,25.0,65,0.00,,BKN032,0.00,VWS V14.01,2013-01-04 19:56:00,
2013-01-04 15:01:00,38.2,27.5,29.86,WNW,300,7.0,25.0,65,0.00,,SCT032,0.00,VWS V14.01,2013-01-04 20:01:00,
2013-01-04 15:06:00,38.0,27.7,29.86,West,271,13.0,20.0,66,0.00,,SCT032,0.00,VWS V14.01,2013-01-04 20:06:00,
2013-01-04 15:11:00,37.9,27.6,29.86,SW,234,13.0,20.0,66,0.00,,SCT032,0.00,VWS V14.01,2013-01-04 20:11:00,
2013-01-04 15:16:00,37.8,27.8,29.86,West,262,9.0,20.0,67,0.00,,SCT032,0.00,VWS V14.01,2013-01-04 20:16:00,
2013-01-04 15:21:00,37.7,27.8,29.86,West,279,5.0,20.0,67,0.00,,SCT032,0.00,VWS V14.01,2013-01-04 20:21:00,
2013-01-04 15:26:00,37.5,27.5,29.86,WSW,257,9.0,20.0,67,0.00,,SCT032,0.00,VWS V14.01,2013-01-04 20:26:00,
2013-01-04 15:31:00,37.4,27.5,29.86,SW,215,13.0,20.0,67,0.00,,SCT032,0.00,VWS V14.01,2013-01-04 20:31:00,
2013-01-04 15:36:00,37.3,27.4,29.86,West,273,9.0,16.0,67,0.00,,SCT032,0.00,VWS V14.01,2013-01-04 20:36:00,
2013-01-04 15:41:00,37.3,27.4,29.85,SW,225,5.0,17.0,67,0.00,,SCT032,0.00,VWS V14.01,2013-01-04 20:41:00,
2013-01-04 15:46:00,37.3,27.4,29.85,South,190,7.0,17.0,67,0.00,,SCT032,0.00,VWS V14.01,2013-01-04 20:46:00,
2013-01-04 15:51:00,37.2,27.3,29.85,NNE,14,5.0,17.0,67,0.00,,SCT032,0.00,VWS V14.01,2013-01-04 20:51:00,
2013-01-04 15:56:00,37.1,27.2,29.85,SSW,206,7.0,17.0,67,0.00,,SCT032,0.00,VWS V14.01,2013-01-04 20:56:00,
2013-01-04 16:01:00,37.0,27.1,29.85,SW,219,7.0,18.0,67,0.00,,FEW032,0.00,VWS V14.01,2013-01-04 21:01:00,
2013-01-04 16:06:00,37.0,27.1,29.85,SW,229,3.0,17.0,67,0.00,,FEW032,0.00,VWS V14.01,2013-01-04 21:06:00,
2013-01-04 16:11:00,36.9,27.0,29.85,SW,232,5.0,17.0,67,0.00,,FEW032,0.00,VWS V14.01,2013-01-04 21:11:00,
2013-01-04 16:16:00,36.8,26.9,29.85,West,266,4.0,17.0,67,0.00,,FEW032,0.00,VWS V14.01,2013-01-04 21:16:00,
2013-01-04 16:21:00,36.8,27.2,29.85,SW,224,1.0,17.0,68,0.00,,FEW032,0.00,VWS V14.01,2013-01-04 21:21:00,
2013-01-04 16:26:00,36.7,27.1,29.85,WSW,256,5.0,17.0,68,0.00,,FEW032,0.00,VWS V14.01,2013-01-04 21:26:00,
2013-01-04 16:31:00,36.6,27.0,29.85,SSW,196,1.0,17.0,68,0.00,,FEW032,0.00,VWS V14.01,2013-01-04 21:31:00,
2013-01-04 16:36:00,36.6,27.0,29.85,West,260,3.0,14.0,68,0.00,,FEW032,0.00,VWS V14.01,2013-01-04 21:36:00,
2013-01-04 16:41:00,36.6,27.0,29.85,West,277,2.0,14.0,68,0.00,,FEW032,0.00,VWS V14.01,2013-01-04 21:41:00,
2013-01-04 16:46:00,36.5,27.0,29.85,WSW,245,4.0,14.0,68,0.00,,FEW032,0.00,VWS V14.01,2013-01-04 21:46:00,
2013-01-04 16:51:00,36.4,26.9,29.85,WNW,284,4.0,14.0,68,0.00,,FEW032,0.00,VWS V14.01,2013-01-04 21:51:00,
2013-01-04 16:56:00,36.4,26.9,29.84,West,279,8.0,14.0,68,0.00,,FEW032,0.00,VWS V14.01,2013-01-04 21:56:00,
2013-01-04 17:01:00,36.4,26.9,29.84,WSW,253,1.0,14.0,68,0.00,,CLR,0.00,VWS V14.01,2013-01-04 22:01:00,
2013-01-04 17:06:00,36.4,26.9,29.84,SSW,204,2.0,9.0,68,0.00,,CLR,0.00,VWS V14.01,2013-01-04 22:06:00,
2013-01-04 17:11:00,36.4,27.2,29.84,SW,215,6.0,11.0,69,0.00,,CLR,0.00,VWS V14.01,2013-01-04 22:11:00,
2013-01-04 17:16:00,36.3,27.1,29.84,West,278,4.0,11.0,69,0.00,,CLR,0.00,VWS V14.01,2013-01-04 22:16:00,
2013-01-04 17:21:00,36.4,26.9,29.85,West,261,1.0,14.0,68,0.00,,CLR,0.00,VWS V14.01,2013-01-04 22:21:00,
2013-01-04 17:26:00,36.4,27.2,29.85,SW,222,7.0,14.0,69,0.00,,CLR,0.00,VWS V14.01,2013-01-04 22:26:00,
2013-01-04 17:31:00,36.4,27.2,29.85,West,266,5.0,14.0,69,0.00,,CLR,0.00,VWS V14.01,2013-01-04 22:31:00,
2013-01-04 17:36:00,36.4,27.2,29.85,WSW,249,2.0,9.0,69,0.00,,CLR,0.00,VWS V14.01,2013-01-04 22:36:00,
2013-01-04 17:41:00,36.5,27.3,29.85,SW,229,5.0,9.0,69,0.00,,CLR,0.00,VWS V14.01,2013-01-04 22:41:00,
2013-01-04 17:46:00,36.5,27.0,29.86,WSW,252,8.0,9.0,68,0.00,,CLR,0.00,VWS V14.01,2013-01-04 22:46:00,
2013-01-04 17:51:00,36.6,27.0,29.86,WSW,250,2.0,12.0,68,0.00,,CLR,0.00,VWS V14.01,2013-01-04 22:51:00,
2013-01-04 17:56:00,36.6,27.0,29.86,SW,235,0.0,12.0,68,0.00,,CLR,0.00,VWS V14.01,2013-01-04 22:56:00,
2013-01-04 18:01:00,36.6,27.0,29.86,WSW,244,1.0,12.0,68,0.00,,CLR,0.00,VWS V14.01,2013-01-04 23:01:00,
2013-01-04 18:06:00,36.6,27.0,29.86,WSW,239,3.0,10.0,68,0.00,,CLR,0.00,VWS V14.01,2013-01-04 23:06:00,
2013-01-04 18:11:00,36.6,27.0,29.86,WSW,253,1.0,10.0,68,0.00,,CLR,0.00,VWS V14.01,2013-01-04 23:11:00,
2013-01-04 18:16:00,36.5,26.6,29.86,WSW,242,3.0,10.0,67,0.00,,CLR,0.00,VWS V14.01,2013-01-04 23:16:00,
2013-01-04 18:21:00,36.5,27.0,29.86,SSW,208,6.0,10.0,68,0.00,,CLR,0.00,VWS V14.01,2013-01-04 23:21:00,
2013-01-04 18:26:00,36.5,26.6,29.86,West,265,10.0,13.0,67,0.00,,CLR,0.00,VWS V14.01,2013-01-04 23:26:00,
2013-01-04 18:31:00,36.6,26.7,29.86,WSW,240,3.0,5.0,67,0.00,,CLR,0.00,VWS V14.01,2013-01-04 23:31:00,
2013-01-04 18:36:00,36.7,26.4,29.86,SW,234,11.0,16.0,66,0.00,,CLR,0.00,VWS V14.01,2013-01-04 23:36:00,
2013-01-04 18:41:00,36.8,26.5,29.86,West,281,6.0,20.0,66,0.00,,CLR,0.00,VWS V14.01,2013-01-04 23:41:00,
2013-01-04 18:46:00,36.8,26.5,29.86,SW,225,5.0,20.0,66,0.00,,CLR,0.00,VWS V14.01,2013-01-04 23:46:00,
2013-01-04 18:51:00,36.9,26.6,29.87,West,262,3.0,20.0,66,0.00,,CLR,0.00,VWS V14.01,2013-01-04 23:51:00,
2013-01-04 18:56:00,36.9,26.6,29.87,West,275,4.0,20.0,66,0.00,,CLR,0.00,VWS V14.01,2013-01-04 23:56:00,
2013-01-04 19:01:00,36.9,26.6,29.87,SW,220,6.0,7.0,66,0.00,,CLR,0.00,VWS V14.01,2013-01-05 00:01:00,
2013-01-04 19:06:00,36.9,26.6,29.87,West,265,3.0,16.0,66,0.00,,CLR,0.00,VWS V14.01,2013-01-05 00:06:00,
2013-01-04 19:11:00,36.8,26.5,29.87,West,263,6.0,16.0,66,0.00,,CLR,0.00,VWS V14.01,2013-01-05 00:11:00,
2013-01-04 19:16:00,36.9,26.6,29.88,WNW,296,11.0,16.0,66,0.00,,CLR,0.00,VWS V14.01,2013-01-05 00:16:00,
2013-01-04 19:21:00,36.9,26.6,29.88,West,271,2.0,21.0,66,0.00,,CLR,0.00,VWS V14.01,2013-01-05 00:21:00,
2013-01-04 19:26:00,36.9,27.0,29.88,WNW,286,1.0,21.0,67,0.00,,CLR,0.00,VWS V14.01,2013-01-05 00:26:00,
2013-01-04 19:31:00,36.9,27.0,29.88,South,180,2.0,3.0,67,0.00,,CLR,0.00,VWS V14.01,2013-01-05 00:31:00,
2013-01-04 19:36:00,36.8,26.9,29.88,WSW,252,6.0,7.0,67,0.00,,CLR,0.00,VWS V14.01,2013-01-05 00:36:00,
2013-01-04 19:41:00,36.9,27.3,29.88,SW,215,6.0,14.0,68,0.00,,CLR,0.00,VWS V14.01,2013-01-05 00:41:00,
2013-01-04 19:46:00,36.9,27.3,29.88,SSW,211,5.0,14.0,68,0.00,,CLR,0.00,VWS V14.01,2013-01-05 00:46:00,
2013-01-04 19:51:00,36.9,27.7,29.88,NNW,338,5.0,16.0,69,0.00,,CLR,0.00,VWS V14.01,2013-01-05 00:51:00,
2013-01-04 19:56:00,36.8,27.6,29.88,NE,47,2.0,16.0,69,0.00,,CLR,0.00,VWS V14.01,2013-01-05 00:56:00,
2013-01-04 20:01:00,36.8,27.2,29.88,WSW,249,4.0,4.0,68,0.00,,CLR,0.00,VWS V14.01,2013-01-05 01:01:00,
2013-01-04 20:06:00,36.9,27.3,29.88,WNW,290,7.0,16.0,68,0.00,,CLR,0.00,VWS V14.01,2013-01-05 01:06:00,
2013-01-04 20:11:00,36.9,27.3,29.88,NW,318,5.0,16.0,68,0.00,,CLR,0.00,VWS V14.01,2013-01-05 01:11:00,
2013-01-04 20:16:00,36.9,27.3,29.88,WSW,240,6.0,19.0,68,0.00,,CLR,0.00,VWS V14.01,2013-01-05 01:16:00,
2013-01-04 20:21:00,36.8,27.2,29.87,NW,308,7.0,19.0,68,0.00,,CLR,0.00,VWS V14.01,2013-01-05 01:21:00,
2013-01-04 20:26:00,36.8,27.2,29.87,West,265,18.0,19.0,68,0.00,,CLR,0.00,VWS V14.01,2013-01-05 01:26:00,
2013-01-04 20:31:00,36.7,27.1,29.87,WSW,238,3.0,7.0,68,0.00,,CLR,0.00,VWS V14.01,2013-01-05 01:31:00,
2013-01-04 20:36:00,36.8,27.2,29.87,SW,226,5.0,17.0,68,0.00,,CLR,0.00,VWS V14.01,2013-01-05 01:36:00,
2013-01-04 20:41:00,36.8,27.2,29.87,WSW,257,11.0,17.0,68,0.00,,CLR,0.00,VWS V14.01,2013-01-05 01:41:00,
2013-01-04 20:46:00,36.8,27.2,29.87,WSW,250,4.0,17.0,68,0.00,,CLR,0.00,VWS V14.01,2013-01-05 01:46:00,
2013-01-04 20:51:00,36.7,28.5,29.87,NW,310,4.0,17.0,72,0.00,,CLR,0.00,VWS V14.01,2013-01-05 01:51:00,
2013-01-04 20:56:00,36.6,27.0,29.87,SW,215,4.0,17.0,68,0.00,,CLR,0.00,VWS V14.01,2013-01-05 01:56:00,
2013-01-04 21:01:00,36.6,27.0,29.87,West,267,2.0,5.0,68,0.00,,CLR,0.00,VWS V14.01,2013-01-05 02:01:00,
2013-01-04 21:06:00,36.6,26.7,29.87,SSW,209,6.0,19.0,67,0.00,,CLR,0.00,VWS V14.01,2013-01-05 02:06:00,
2013-01-04 21:11:00,36.6,26.7,29.86,WSW,238,18.0,19.0,67,0.00,,CLR,0.00,VWS V14.01,2013-01-05 02:11:00,
2013-01-04 21:16:00,36.6,26.7,29.86,WSW,248,4.0,19.0,67,0.00,,CLR,0.00,VWS V14.01,2013-01-05 02:16:00,
2013-01-04 21:21:00,36.5,26.6,29.86,West,277,8.0,20.0,67,0.00,,CLR,0.00,VWS V14.01,2013-01-05 02:21:00,
2013-01-04 21:26:00,36.5,26.6,29.87,WSW,254,6.0,20.0,67,0.00,,CLR,0.00,VWS V14.01,2013-01-05 02:26:00,
2013-01-04 21:32:00,36.4,26.1,29.86,West,264,4.0,12.0,66,0.00,,CLR,0.00,VWS V14.01,2013-01-05 02:32:00,
2013-01-04 21:37:00,36.3,26.4,29.87,North,350,2.0,18.0,67,0.00,,CLR,0.00,VWS V14.01,2013-01-05 02:37:00,
2013-01-04 21:42:00,36.2,26.3,29.87,WNW,299,1.0,18.0,67,0.00,,CLR,0.00,VWS V14.01,2013-01-05 02:42:00,
2013-01-04 21:47:00,36.1,26.2,29.87,West,273,2.0,18.0,67,0.00,,CLR,0.00,VWS V14.01,2013-01-05 02:47:00,
2013-01-04 21:52:00,36.0,26.1,29.87,West,273,4.0,18.0,67,0.00,,CLR,0.00,VWS V14.01,2013-01-05 02:52:00,
2013-01-04 21:57:00,35.9,26.0,29.87,West,267,7.0,18.0,67,0.00,,CLR,0.00,VWS V14.01,2013-01-05 02:57:00,
2013-01-04 22:02:00,35.8,25.9,29.87,SW,217,4.0,5.0,67,0.00,,CLR,0.00,VWS V14.01,2013-01-05 03:02:00,
2013-01-04 22:07:00,35.7,25.8,29.87,West,271,4.0,11.0,67,0.00,,CLR,0.00,VWS V14.01,2013-01-05 03:07:00,
2013-01-04 22:12:00,35.6,25.4,29.87,WSW,254,3.0,11.0,66,0.00,,CLR,0.00,VWS V14.01,2013-01-05 03:12:00,
2013-01-04 22:17:00,35.4,25.5,29.88,SSW,211,3.0,11.0,67,0.00,,CLR,0.00,VWS V14.01,2013-01-05 03:17:00,
2013-01-04 22:22:00,35.3,25.5,29.88,WSW,244,3.0,11.0,67,0.00,,CLR,0.00,VWS V14.01,2013-01-05 03:22:00,
2013-01-04 22:27:00,35.1,25.3,29.88,West,277,5.0,11.0,67,0.00,,CLR,0.00,VWS V14.01,2013-01-05 03:27:00,
2013-01-04 22:32:00,34.9,25.1,29.88,WSW,238,0.0,3.0,67,0.00,,CLR,0.00,VWS V14.01,2013-01-05 03:32:00,
2013-01-04 22:37:00,34.7,24.9,29.88,West,269,3.0,11.0,67,0.00,,CLR,0.00,VWS V14.01,2013-01-05 03:37:00,
2013-01-04 22:42:00,34.6,24.8,29.88,West,261,2.0,11.0,67,0.00,,CLR,0.00,VWS V14.01,2013-01-05 03:42:00,
2013-01-04 22:47:00,34.4,24.6,29.88,SW,232,3.0,11.0,67,0.00,,CLR,0.00,VWS V14.01,2013-01-05 03:47:00,
2013-01-04 22:52:00,34.4,25.0,29.88,SW,228,6.0,11.0,68,0.00,,CLR,0.00,VWS V14.01,2013-01-05 03:52:00,
2013-01-04 22:57:00,34.2,24.8,29.88,WSW,251,0.0,11.0,68,0.00,,CLR,0.00,VWS V14.01,2013-01-05 03:57:00,
2013-01-04 23:02:00,34.1,24.7,29.88,SW,219,5.0,6.0,68,0.00,,CLR,0.00,VWS V14.01,2013-01-05 04:02:00,
2013-01-04 23:07:00,34.1,24.7,29.88,WSW,254,4.0,6.0,68,0.00,,CLR,0.00,VWS V14.01,2013-01-05 04:07:00,
2013-01-04 23:12:00,34.0,24.6,29.89,WSW,258,3.0,6.0,68,0.00,,CLR,0.00,VWS V14.01,2013-01-05 04:12:00,
2013-01-04 23:17:00,33.9,24.5,29.89,WSW,240,1.0,7.0,68,0.00,,CLR,0.00,VWS V14.01,2013-01-05 04:17:00,
2013-01-04 23:22:00,33.8,24.4,29.89,West,261,0.0,7.0,68,0.00,,CLR,0.00,VWS V14.01,2013-01-05 04:22:00,
2013-01-04 23:27:00,33.7,24.3,29.89,SW,236,2.0,10.0,68,0.00,,CLR,0.00,VWS V14.01,2013-01-05 04:27:00,
2013-01-04 23:32:00,33.6,24.2,29.89,WSW,239,3.0,6.0,68,0.00,,CLR,0.00,VWS V14.01,2013-01-05 04:32:00,
2013-01-04 23:37:00,33.4,24.0,29.89,WSW,244,5.0,8.0,68,0.00,,CLR,0.00,VWS V14.01,2013-01-05 04:37:00,
2013-01-04 23:42:00,33.2,23.8,29.89,SSW,213,1.0,11.0,68,0.00,,CLR,0.00,VWS V14.01,2013-01-05 04:42:00,
2013-01-04 23:47:00,33.1,24.0,29.89,SW,220,0.0,11.0,69,0.00,,CLR,0.00,VWS V14.01,2013-01-05 04:47:00,
2013-01-04 23:52:00,33.0,23.6,29.89,SW,236,2.0,11.0,68,0.00,,CLR,0.00,VWS V14.01,2013-01-05 04:52:00,
2013-01-04 23:57:00,32.9,23.5,29.89,West,277,5.0,11.0,68,0.00,,CLR,0.00,VWS V14.01,2013-01-05 04:57:00,